User: anonymous
Location: Caltech
(34.1382°N, 118.1253°W)
Time: 21:01:43
(UTC-07:00)
Language:

Cosmos 1758 Rocket - Orbit

View from above orbital plane
View from above orbital plane
View from above satellite
View from above satellite

Ground track
Ground track

The orbit data is extracted from the following two-line orbital elements,

1 16792U 86046B   14273.48060755  .00000677  00000-0  80898-4 0  5905
2 16792 082.4834 054.3677 0023153 316.1543 105.4868 14.82632659528053
Epoch (UTC): 30 September 2014 11:32:04
Eccentricity: 0.0023153
inclination: 82.4834°
perigee height: 605 km
apogee height: 637 km
right ascension of ascending node: 54.3677°
argument of perigee: 316.1543°
revolutions per day: 14.82632659
mean anomaly at epoch: 105.4868°
orbit number at epoch: 52805

The dashed part of the orbit path shows where the satellite is in the earth's shadow,  

DLR